This is the latest recevied weather packets stored in our database for station/object KD7AWQ. If no packets are shown the sender has not sent any weather packets the latest 10 day(s).
| Time | Temp. | Humidity | Pressure | Rain* | Wind** | Luminosity | Snow |
|---|---|---|---|---|---|---|---|
| 1777910496 | 20.56° C | 23% | 1183.9 hPa | 0 mm | - | 545 W/m² | - |
| 1777910192 | 20.56° C | 24% | 1183.7 hPa | 0 mm | - | 635 W/m² | - |
| 1777909890 | 21.11° C | 24% | 1183.8 hPa | 0 mm | - | 540 W/m² | - |
| 1777909586 | 20.56° C | 24% | 1183.9 hPa | 0 mm | - | 520 W/m² | - |
| 1777909284 | 21.11° C | 24% | 1184.1 hPa | 0 mm | - | 645 W/m² | - |
| 1777908982 | 20.56° C | 25% | 1183.9 hPa | 0 mm | - | 607 W/m² | - |
| 1777908680 | 20° C | 26% | 1183.9 hPa | 0 mm | - | 476 W/m² | - |
| 1777908376 | 20° C | 26% | 1183.8 hPa | 0 mm | - | 502 W/m² | - |
| 1777908072 | 20° C | 25% | 1183.9 hPa | 0 mm | - | 377 W/m² | - |
| 1777907768 | 20° C | 26% | 1184 hPa | 0 mm | - | 474 W/m² | - |
| 1777907463 | 20° C | 26% | 1184 hPa | 0 mm | - | 466 W/m² | - |
| 1777907161 | 20° C | 27% | 1184.1 hPa | 0 mm | - | 386 W/m² | - |
| 1777906857 | 19.44° C | 28% | 1184.1 hPa | 0 mm | - | 395 W/m² | - |
| 1777906555 | 18.89° C | 28% | 1183.8 hPa | 0 mm | - | 335 W/m² | - |
| 1777906250 | 18.89° C | 29% | 1184.3 hPa | 0 mm | - | 303 W/m² | - |
| 1777905947 | 18.89° C | 28% | 1183.8 hPa | 0 mm | - | 314 W/m² | - |
| 1777905644 | 18.89° C | 29% | 1184 hPa | 0 mm | - | 270 W/m² | - |
| 1777905341 | 18.33° C | 29% | 1183.9 hPa | 0 mm | - | 276 W/m² | - |
| 1777905038 | 18.33° C | 30% | 1184.4 hPa | 0 mm | - | 258 W/m² | - |
| 1777904736 | 17.78° C | 30% | 1184 hPa | 0 mm | - | 181 W/m² | - |
| 1777904433 | 17.78° C | 30% | 1184.1 hPa | 0 mm | - | 141 W/m² | - |
| 1777904129 | 17.78° C | 31% | 1183.9 hPa | 0 mm | - | 138 W/m² | - |
| 1777903826 | 17.22° C | 33% | 1184 hPa | 0 mm | - | 138 W/m² | - |
| 1777903523 | 17.22° C | 33% | 1184.3 hPa | 0 mm | - | 130 W/m² | - |
| 1777903219 | 17.22° C | 33% | 1183.9 hPa | 0 mm | - | 143 W/m² | - |
* Rain latest hour (hover to see other rain measurements)
** Current wind speed in m/s (hover to see current wind gust speed)